{"data":{"norad_id":59664,"epoch":"2026-09-21T09:04:04.728864Z","epoch_age_seconds":95321,"freshness":"FRESH","line1":"1 59664U 24084L   26264.37783251 -.00001270  00000+0 -36651-4 0  9990","line2":"2 59664  43.0026  16.4258 0000992 243.8282 116.2467 15.27557828134300","mean_motion":15.27557828,"eccentricity":9.92e-5,"inclination_deg":43.0026,"raan_deg":16.4258,"arg_perigee_deg":243.8282,"mean_anomaly_deg":116.2467,"bstar":-3.6651e-5,"rev_number":13430,"period_min":94.268116964538,"perigee_km":482.43485154023,"apogee_km":483.79612403381,"semimajor_km":6861.252487787,"source":"CELESTRAK","updated_at":"2026-09-22T09:00:49.027248Z"}}